Find Starlink 33941

NORAD ID: 63765 Int'l Des: 2025-089 Owner: SPXS Country: US Constellation: starlink operational
LEOCIRCULAR

Current View

Loading 3D Globe...

About Starlink 33941

Starlink 33941 (NORAD 63765) is a starlink constellation satellite (v2 mini) launched Apr 29, 2025 by SPXS of US. It operates in LEO, CIRCULAR orbit with a mass of 575.00 kg.

About Starlink 33941

Description loading...

Upcoming Passes

Passes for default location (London). Set your location on the main map for personalized predictions.

Altitude History

Loading altitude history...

Two-Line Element Set

1 63765U 25089Q 26171.33247624 .00013860 00000-0 51202-3 0 9990
2 63765 42.9992 185.7166 0000756 258.9887 101.0880 15.27594170 64642
Epoch: Jun 20, 2026 • Age: 51 hours

Current Status

Altitude 486.3 km
Velocity 7.63 km/s
Sub-Earth Point 42.28°N, 179.06°W
Launch Date Apr 29, 2025
Age 1.1 years
Type internet

Technical Details

Classification Payload
Mass 575.00 kg
Dry Mass 530.00 kg
Total Mass 575.00 kg
Length 0.30 m
Diameter 4.10 m
Span 29.00 m
Shape Box + pan
Manufacturer SPXS
Bus Type Starlink V2MO
Phase Status In Orbit
Owner/State SPXS/US

Most Searched